This is the latest recevied weather packets stored in our database for station/object VA7SHG-1. If no packets are shown the sender has not sent any weather packets the latest 10 day(s).
| Time | Temp. | Humidity | Pressure | Rain* | Wind** | Luminosity | Snow |
|---|---|---|---|---|---|---|---|
| 1777955121 | 22.22° C | 49% | 1009.4 hPa | 0 mm | - | 0 W/m² | - |
| 1777951522 | 24.44° C | 41% | 1008.5 hPa | 0 mm | - | 8 W/m² | - |
| 1777950360 | 25° C | 38% | 1008.2 hPa | 0 mm | - | 20 W/m² | - |
| 1777949121 | 26.11° C | 37% | 1008 hPa | 0 mm | - | 37 W/m² | - |
| 1777945541 | 27.78° C | 35% | 1008 hPa | 0 mm | - | 155 W/m² | - |
| 1777936518 | 28.89° C | 34% | 1008.6 hPa | 0 mm | - | 589 W/m² | - |
| 1777935920 | 28.89° C | 34% | 1008.6 hPa | 0 mm | - | 611 W/m² | - |
| 1777933519 | 28.89° C | 36% | 1008.9 hPa | 0 mm | - | 740 W/m² | - |
| 1777929920 | 28.33° C | 34% | 1009.1 hPa | 0 mm | - | 890 W/m² | - |
| 1777926320 | 27.22° C | 32% | 1009.5 hPa | 0 mm | - | 963 W/m² | - |
| 1777925717 | 26.67° C | 33% | 1009.6 hPa | 0 mm | - | 967 W/m² | - |
| 1777923919 | 28.33° C | 32% | 1009.5 hPa | 0 mm | - | 975 W/m² | - |
| 1777923317 | 28.33° C | 30% | 1009.6 hPa | 0 mm | - | 973 W/m² | - |
| 1777922720 | 28.33° C | 30% | 1009.6 hPa | 0 mm | - | 968 W/m² | - |
| 1777922118 | 28.89° C | 28% | 1009.7 hPa | 0 mm | - | 965 W/m² | - |
| 1777914919 | 23.33° C | 36% | 1010.8 hPa | 0 mm | - | 695 W/m² | - |
| 1777914320 | 23.33° C | 36% | 1010.9 hPa | 0 mm | - | 646 W/m² | - |
| 1777912518 | 22.78° C | 38% | 1010.9 hPa | 0 mm | - | 584 W/m² | - |
| 1777910740 | 22.22° C | 40% | 1011.1 hPa | 0 mm | - | 539 W/m² | - |
| 1777910138 | 21.67° C | 41% | 1011.1 hPa | 0 mm | - | 526 W/m² | - |
| 1777899318 | 15° C | 63% | 1010.5 hPa | 0 mm | - | 9 W/m² | - |
| 1777898718 | 13.33° C | 65% | 1010.5 hPa | 0 mm | - | 4 W/m² | - |
| 1777894517 | 13.33° C | 74% | 1010.7 hPa | 0 mm | - | 0 W/m² | - |
| 1777892719 | 13.89° C | 73% | 1010.6 hPa | 0 mm | - | 0 W/m² | - |
| 1777891518 | 14.44° C | 72% | 1010.6 hPa | 0 mm | - | 0 W/m² | - |
* Rain latest hour (hover to see other rain measurements)
** Current wind speed in m/s (hover to see current wind gust speed)